Weather in Bolshaya Khalan

Russia / Belgorod Oblast     50°55′24″N   37°25′31″E
В апреле 2022 года жителям России запретили посещать сайт meteo.paraplan.net по решению Генеральной прокуратуры. Аудитория сайта уменьшилась в 10 раз. Владельцы сайта не видят смысла в поддержке погодного сервера в таких условиях. Сайт будет закрыт в октябре.
temp.,
°C
wind,
m/s
gust,
m/s
humid.,
%
clouds,
%
prec.,
mm/h
press.,
hPa
HPBL,
m
4 october, tue
tue400:00+9s715745 0.0 1008540
03:00+9s71479100 0.0 1009493
06:00+10s8157789 0.1 1009663
09:00+12s71278100 0.2 10101012
12:00+14ssw8126290 0.3 10101539
15:00+13sw7126493 0.4 10121536
18:00+10wsw51067100 0.0 1014584
21:00+9sw5976100 0.0 1015894
5 october, wed
wed500:00+8sw5118225 0.0 1016654
03:00+8sw51182100 0.0 1016595
06:00+9sw61081100 0.0 1016740
09:00+9sw5985100 0.1 1018725
12:00+9wsw6982100 0.6 10191168
15:00+9w6985100 1.0 1020745
18:00+8w5108295 0.2 1022540
21:00+8w5979100 0.2 1022511
6 october, thu
thu600:00+7w5109018 0.0 1023369
03:00+8wsw4992100 0.0 1023381
06:00+8wsw4992100 0.0 1023355
09:00+10wsw598393 0.0 1023460
12:00+12wsw587539 0.0 1023742
15:00+15w6761100 0.0 10221257
18:00+13w367181 0.0 1022155
21:00+10wsw37875 0.0 1023120
7 october, fri
fri700:00+9wsw36925 0.0 1024114
03:00+8wsw37935 0.0 1023128
06:00+8w38945 0.0 1023144
09:00+12wnw48815 0.0 1023308
12:00+16nw56665 0.0 1024780
15:00+17nnw56550 0.0 1024927
18:00+12nnw34700 0.0 102562
21:00+10nnw35790 0.0 102670
8 october, sat
sat800:00+9n34890 0.0 102851
03:00+7ne33940 0.0 102847
06:00+6ene22932 0.0 102815
09:00+9e22804 0.0 1028215
12:00+14ese22595 0.0 1027621
15:00+16se23515 0.0 1025875
18:00+12ese23685 0.0 102418
21:00+10se3375100 0.0 102431